TimeCDT,TemperatureF,Dew PointF,Humidity,Sea Level PressureIn,VisibilityMPH,Wind Direction,Wind SpeedMPH,Gust SpeedMPH,PrecipitationIn,Events,Conditions,WindDirDegrees,DateUTC
12:03 AM,32.0,32.0,100,29.72,1.2,NE,4.6,-,N/A,Snow,Light Snow,50,2014-03-19 05:03:00
12:23 AM,32.0,32.0,100,29.71,1.2,NE,5.8,-,N/A,Snow,Light Snow,50,2014-03-19 05:23:00
12:38 AM,32.0,32.0,100,29.70,1.5,ENE,6.9,-,N/A,Snow,Light Snow,60,2014-03-19 05:38:00
12:43 AM,32.0,32.0,100,29.70,1.8,ENE,8.1,-,N/A,Snow,Light Snow,60,2014-03-19 05:43:00
12:53 AM,32.0,32.0,100,29.69,2.0,ENE,8.1,-,N/A,Snow,Light Snow,60,2014-03-19 05:53:00
12:58 AM,32.0,32.0,100,29.73,2.5,ENE,6.9,-,0.05,Snow,Light Snow,60,2014-03-19 05:58:00
1:08 AM,32.0,32.0,100,29.68,3.0,ENE,8.1,-,N/A,Snow,Light Snow,70,2014-03-19 06:08:00
1:28 AM,32.0,32.0,100,29.68,3.0,ENE,8.1,-,N/A,Snow,Light Snow,60,2014-03-19 06:28:00
1:38 AM,32.0,32.0,100,29.67,3.0,ENE,8.1,-,N/A,Snow,Light Snow,70,2014-03-19 06:38:00
1:58 AM,32.4,32.4,100,29.70,4.0,ENE,6.9,-,0.00,Snow,Light Snow,60,2014-03-19 06:58:00
2:09 AM,32.0,32.0,100,29.67,5.0,ENE,8.1,-,N/A,,Overcast,60,2014-03-19 07:09:00
2:19 AM,32.0,32.0,100,29.66,6.0,ENE,6.9,-,N/A,,Overcast,70,2014-03-19 07:19:00
2:29 AM,32.0,32.0,100,29.66,6.0,ENE,5.8,-,N/A,,Overcast,60,2014-03-19 07:29:00
2:58 AM,32.2,32.2,100,29.68,6.0,NE,5.8,-,0.00,,Overcast,40,2014-03-19 07:58:00
3:30 AM,32.0,32.0,100,29.65,5.0,NNE,3.5,-,N/A,,Overcast,20,2014-03-19 08:30:00
3:43 AM,32.0,32.0,100,29.64,6.0,NNE,4.6,-,N/A,,Overcast,30,2014-03-19 08:43:00
3:46 AM,32.0,32.0,100,29.64,6.0,NNE,5.8,-,N/A,,Overcast,20,2014-03-19 08:46:00
3:58 AM,32.0,32.0,100,29.67,5.0,North,5.8,-,0.00,,Overcast,360,2014-03-19 08:58:00
4:08 AM,32.0,32.0,100,29.63,4.0,North,5.8,-,N/A,,Overcast,10,2014-03-19 09:08:00
4:47 AM,32.0,32.0,100,29.63,6.0,North,4.6,-,N/A,,Overcast,360,2014-03-19 09:47:00
4:58 AM,31.6,31.6,100,29.66,6.0,North,4.6,-,0.00,,Overcast,350,2014-03-19 09:58:00
5:58 AM,31.8,31.8,100,29.68,6.0,NNW,4.6,-,N/A,,Overcast,330,2014-03-19 10:58:00
6:08 AM,32.0,32.0,100,29.64,6.0,NNW,5.8,-,N/A,,Overcast,330,2014-03-19 11:08:00
6:22 AM,32.0,32.0,100,29.64,6.0,NW,4.6,-,N/A,,Overcast,320,2014-03-19 11:22:00
6:26 AM,32.0,32.0,100,29.64,6.0,NW,4.6,-,N/A,,Overcast,310,2014-03-19 11:26:00
6:58 AM,32.0,32.0,100,29.70,1.5,NW,6.9,-,N/A,Snow,Light Snow,310,2014-03-19 11:58:00
7:58 AM,32.0,32.0,100,29.71,2.0,NW,8.1,-,N/A,Snow,Light Snow,320,2014-03-19 12:58:00
8:58 AM,33.8,33.8,100,29.72,2.5,NW,9.2,-,N/A,Snow,Light Snow,320,2014-03-19 13:58:00
9:58 AM,33.8,33.8,100,29.74,3.0,NW,9.2,-,N/A,Snow,Light Snow,310,2014-03-19 14:58:00
10:58 AM,33.8,33.8,100,29.76,2.0,WNW,11.5,-,N/A,Snow,Light Snow,300,2014-03-19 15:58:00
11:15 AM,33.8,33.8,100,29.72,3.0,WNW,11.5,-,N/A,Snow,Light Snow,300,2014-03-19 16:15:00
11:42 AM,35.6,35.6,100,29.72,7.0,WNW,15.0,-,N/A,,Overcast,300,2014-03-19 16:42:00
11:58 AM,35.6,35.6,100,29.78,7.0,WNW,18.4,23.0,N/A,,Overcast,300,2014-03-19 16:58:00
12:58 PM,33.8,33.8,100,29.79,10.0,WNW,16.1,21.9,N/A,,Overcast,290,2014-03-19 17:58:00
2:06 PM,32.0,32.0,100,29.77,10.0,WNW,16.1,27.6,N/A,,Overcast,290,2014-03-19 19:06:00
2:58 PM,32.0,32.0,100,29.82,10.0,WNW,16.1,24.2,N/A,,Overcast,290,2014-03-19 19:58:00
3:58 PM,33.8,28.4,81,29.85,10.0,WNW,16.1,-,N/A,,Overcast,290,2014-03-19 20:58:00
4:58 PM,33.8,26.6,75,29.87,10.0,West,16.1,-,N/A,,Overcast,280,2014-03-19 21:58:00
5:58 PM,33.8,26.6,75,29.90,10.0,West,19.6,26.5,N/A,,Overcast,280,2014-03-19 22:58:00
6:23 PM,32.0,26.6,80,29.87,10.0,West,15.0,26.5,N/A,,Overcast,280,2014-03-19 23:23:00
6:58 PM,33.8,26.6,75,29.93,10.0,West,15.0,21.9,N/A,,Overcast,280,2014-03-19 23:58:00
7:58 PM,32.0,23.0,69,29.95,10.0,West,16.1,-,N/A,,Overcast,280,2014-03-20 00:58:00
8:58 PM,32.0,21.2,64,29.97,10.0,WNW,11.5,27.6,N/A,,Overcast,300,2014-03-20 01:58:00
9:58 PM,32.0,23.0,69,29.98,10.0,West,8.1,-,N/A,,Overcast,270,2014-03-20 02:58:00
10:58 PM,32.0,23.0,69,29.98,10.0,West,6.9,-,N/A,,Overcast,270,2014-03-20 03:58:00
11:58 PM,32.2,24.4,73,29.98,10.0,West,8.1,-,N/A,,Overcast,270,2014-03-20 04:58:00